Regional Weather Roundup
Issued by NWS Green Bay, WI

Home | Current Version | Previous Version | Graphics & Text | Print | Product List | Glossary Off
Versions: 1 2 3 4 5 6 7 8 9 10 11 12 13 14 15 16 17 18 19 20 21 22 23 24 25 26 27 28 29 30 31 32 33 34 35 36 37 38 39 40 41 42 43 44 45 46 47 48 49 50

000
ASUS43 KGRB 280100
RWRGRB

NORTH-CENTRAL AND NORTHEAST WISCONSIN REGIONAL WEATHER ROUNDUP
NATIONAL WEATHER SERVICE GREEN BAY WI
800 PM CDT MON JUL 27 2015

WIZ005-009-010>012-018-019-280200-
NORTH CENTRAL WISCONSIN

CITY           SKY/WX    TMP DP  RH WIND       PRES   REMARKS
IRONWOOD       CLEAR     82  59  44 SE5         N/A
MANITOWISH WTR NOT AVBL
ARBOR VITAE    NOT AVBL
EAGLE RIVER    NOT AVBL
LAND O LAKES   NOT AVBL
RHINELANDER    CLEAR     79  60  52 CALM      30.04R
PHILLIPS       NOT AVBL
ANTIGO         NOT AVBL
TOMAHAWK       NOT AVBL
MERRILL        NOT AVBL
$$

WIZ013-073-280200-
NORTHEAST WISCONSIN

CITY           SKY/WX    TMP DP  RH WIND       PRES   REMARKS
IRON MOUNTAIN  CLEAR     80  62  54 S5        30.00S
MARINETTE      CLEAR     79  61  53 S3        30.00R
$$

WIZ017-030-035>037-045-280200-
CENTRAL WISCONSIN

CITY           SKY/WX    TMP DP  RH WIND       PRES   REMARKS
MEDFORD        NOT AVBL
WAUSAU         PTCLDY    80  64  58 SE5       29.99S
MOSINEE        CLEAR     77  64  65 E3        30.01S
MARSHFIELD     MOCLDY    80  62  54 SE5       29.99S
WISC RAPIDS    MOCLDY    81  61  50 SE3       29.99S
STEVENS POINT  NOT AVBL
WAUPACA        NOT AVBL
SHAWANO        NOT AVBL
CLINTONVILLE   NOT AVBL
$$

WIZ038-039-048-051-280200-
FOX VALLEY

CITY           SKY/WX    TMP DP  RH WIND       PRES   REMARKS
NWS GREEN BAY  PTCLDY    78  64  61 SE7       30.00S
APPLETON       MOCLDY    81  59  47 SE10      30.01
OSHKOSH        CLEAR     80  63  55 SE6       29.99S
FOND DU LAC    CLEAR     79  61  53 SE7       29.99F
$$

WIZ022-050-052-280200-
EAST CENTRAL WISCONSIN

CITY           SKY/WX    TMP DP  RH WIND       PRES   REMARKS
STURGEON BAY   CLEAR     77  61  57 S3        30.04R
MANITOWOC      NOT AVBL
SHEBOYGAN      CLEAR     75  65  70 SE3       30.02R
$$

LMZ563-521-522-541>543-280200-
LAKESHORE

STATION/POSITION TIME  TEMP    WIND        PRES    VSBY  WAVE
                       AIR SEA DIR/SP/G                  HT/PER
                 (UTC) (F)     (DEG/KT/KT) (MB)    (MI)  (FT/S)
SHEBOYGAN LKSHOR 0000   76     120/  3/  3 1016.2F
KEWAUNEE LKSHORE 0000   74     160/  3/  4 1015.5F
ALGOMA MARINA    0012             CALM       N/A
TWO RIVERS CG    0011   76                 1015.8      6   0
NORTHPORT PIER   0000   83     180/  3/  5 1015.2
N MID LAKE BUOY  2350   73 71  210/  4/  4 1015.5F         0
SISTER BAY LKSHO 0014   85     240/  2/  3   N/A
STURGEON BAY CG  0007   72     210/  4     1015.8      6   1
CHAMBERS ISLAND  0000   84     180/  1/  3 1015.2
MENOMINEE LKSHOR 0000   81     170/  4/  6 1016.4F
$$



USA.gov is the U.S. government's official web portal to all federal, state and local government web resources and services.